SCP
0 0 0 0 0 0 0 0 0 0 0 0 0 0 0 0 0 0 0 0 0 0 0 0 0 0 0 0 0 0 0 0 0 0 0 0 0 0 0 0 0 0 0
0 0 0 0 0 0 0 0 0 0 0 0 0 0 0 0 0 0 0 0 0 0 0 0 0 0 0 0 0 0 0 0 0 0 0 0 0 0 0 0 0 0 0
0 0 0 0 0 0 0 0 0 0 0 0 0 0 0 0 0 0 0 0 0 0 0 0 0 0 0 0 0 0 0 0 0 0 0 0 0 0 0 0 0 0 0
0 0 0 0 0 0 0 0 0 0 0 0 0 0 0 0 0 0 0 0 0 0 0 0 0 0 0 0 0 0 0 0 0 0 0 0 0 0 0 0 0 0 0
0 0 0 0 0 0 0 0 0 0 0 0 0 0 0 0 0 0 0 0 0 0 0 0 0 0 0 0 0 0 0 0 0 0 0 0 0 0 0 0 0 0 0
0 0 0 0 0 0 0 0 0 0 0 0 0 0 0 0 0 0 0 0 0 0 0 0 0 0 0 0 0 0 0 0 0 0 0 0 0 0 0 0 0 0 0
0 0 0 0 0 0 0 0 0 0 0 0 0 0 0 0 0 0 0 0 0 0 0 0 0 0 0 0 0 0 0 0 0 0 0 0 0 0 0 0 0 0 0
0 0 0 0 0 0 0 0 0 0 0 0 0 0 0 0 0 0 0 0 0 0 0 0 0 0 0 0 0 0 0 0 0 0 0 0 0 0 0 0 0 0 0
0 0 0 0 0 0 0 0 0 0 0 0 0 0 0 0 0 0 0 0 0 0 0 0 0 0 0 0 0 0 0 0 0 0 0 0 0 0 0 0 0 0 0
0 0 0 0 0 0 0 0 0 0 0 0 0 0 0 0 0 0 0 0 0 0 0 0 0 0 0 0 0 0 0 0 0 0 0 0 0 0 0 0 0 0 0
0 0 0 0 0 0 0 0 0 0 0 0 0 0 0 0 0 0 0 0 0 0 0 0 0 0 0 0 0 0 0 0 0 0 0 0 0 0 0 0 0 0 0
0 0 0 0 0 0 0 0 0 0 0 0 0 0 0 0 0 0 0 0 0 0 0 0 0 0 0 0 0 0 0 0 0 0 0 0 0 0 0 0 0 0 0
0 0 0 0 0 0 0 0 0 0 0 0 0 0 0 0 0 0 0 0 0 0 0 0 0 0 0 0 0 0 0 0 0 0 0 0 0 0 0 0 0 0 0
1 0 0 0 0 0 0 0 0 0 0 0 0 0 0 0 0 0 0 0 0 0 0 0 0 0 0 0 0 0 0 0 0 0 0 0 0 0 0 0 0 0 0
1 1 0 0 0 0 0 0 1 1 1 0 0 0 0 0 0 0 0 0 0 0 0 0 0 0 0 0 0 0 0 0 0 0 0 0 0 0 0 0 0 0 0
2 2 1 0 0 0 0 0 1 1 1 1 1 1 1 0 0 0 0 0 0 0 0 0 0 0 0 0 0 0 0 0 0 0 0 0 0 0 0 0 0 0 0
3 3 1 0 0 0 0 0 0 1 1 1 2 2 1 1 1 1 0 0 0 0 0 0 0 0 0 0 0 0 0 0 0 0 0 0 0 0 0 0 0 0 0
4 3 2 1 0 0 0 0 0 0 1 1 1 2 2 2 2 1 1 1 1 0 0 0 0 0 0 0 0 0 0 0 0 0 0 0 0 0 0 0 0 0 0
4 4 3 1 0 0 0 1 1 0 0 1 1 1 2 2 2 2 2 2 1 1 1 0 0 0 0 0 0 0 0 0 0 0 0 0 0 0 0 0 0 0 0
3 4 4 2 1 0 0 1 1 1 1 1 1 1 1 2 2 2 2 2 2 2 1 1 1 0 0 0 0 0 0 0 0 0 0 0 0 0 0 0 0 0 0
2 4 4 3 1 0 0 0 1 0 1 1 1 1 1 1 1 1 2 2 2 2 2 2 1 1 0 0 0 0 0 0 0 0 0 0 0 0 0 0 0 0 0
2 3 4 3 1 0 0 0 0 0 0 0 1 1 1 1 1 1 1 1 1 2 2 2 2 1 0 0 0 0 0 0 0 0 0 0 0 0 0 0 0 0 0
1 2 2 2 1 0 0 0 0 0 0 0 0 1 1 1 0 0 0 0 0 1 1 2 2 1 1 0 0 0 0 0 0 0 0 0 0 0 0 0 0 0 0
0 1 1 1 0 0 0 0 0 0 0 0 0 0 1 1 0 0 0 0 0 0 0 1 1 1 1 0 0 0 0 0 0 0 0 0 0 0 0 0 0 0 0
0 0 0 0 0 0 0 0 0 0 0 0 0 0 1 1 0 0 0 1 1 0 0 0 0 0 0 0 0 0 0 0 0 0 0 0 0 0 0 0 0 0 0
0 0 0 0 0 0 0 0 0 0 0 0 0 0 0 0 0 0 0 0 1 0 0 0 0 0 0 0 0 0 0 0 0 0 0 0 0 0 0 0 0 0 0
Wind_Speed
6 5 4 4 4 4 4 4 4 4 4 4 4 4 4 4 4 4 3 7 8 8 9 9 9 9 9 9 9 9 8 8 8 8 8 7 7 6 6 6 5 5 5
7 6 6 6 5 5 5 5 5 5 4 4 5 5 5 5 5 5 4 5 9 10 10 11 11 11 11 11 11 11 11 10 10 9 9 9 9 8 8 7 7 7 6
8 7 7 6 6 6 6 5 5 4 4 4 6 6 5 5 5 6 5 4 5 9 11 12 12 13 13 13 13 13 13 12 12 12 12 11 11 10 10 10 9 9 8
9 8 7 7 6 6 6 5 5 5 5 5 5 5 5 4 6 6 5 5 5 5 8 13 13 14 14 14 14 14 14 14 14 14 13 13 13 13 12 12 11 11 10
10 9 8 7 7 6 6 6 6 5 5 6 5 5 5 5 6 6 7 7 7 7 6 9 13 13 15 16 16 16 16 15 16 15 15 15 15 15 14 14 13 13 12
11 10 7 8 8 7 7 6 6 6 5 5 5 5 5 6 6 7 8 7 7 9 8 7 7 9 14 17 18 18 17 17 17 17 17 16 17 17 16 16 16 15 14
11 10 8 8 9 9 9 9 6 7 6 3 3 4 5 7 9 8 8 7 9 9 8 9 7 6 6 16 19 20 20 19 19 18 18 18 18 18 18 18 18 17 17
12 11 11 9 9 9 9 10 9 6 5 5 4 2 4 5 7 9 8 9 10 7 8 10 9 9 7 6 11 20 21 21 21 20 19 19 19 19 19 19 19 19 19
12 12 13 11 10 10 11 12 11 11 9 7 6 5 5 7 3 4 7 9 8 8 8 7 10 10 9 8 8 15 19 21 21 21 21 20 20 20 20 20 20 20 20
13 13 13 13 12 11 12 11 11 10 10 8 6 7 6 4 3 4 3 5 7 9 9 8 9 10 9 8 10 14 17 19 19 20 20 20 20 20 20 20 20 20 20
12 14 14 13 13 12 13 12 11 12 11 11 8 5 8 6 6 5 7 4 3 6 7 8 7 8 9 9 9 13 17 19 19 19 19 19 20 21 20 20 20 20 20
10 13 14 14 14 13 13 14 13 14 13 13 11 9 7 6 8 8 11 8 6 5 6 7 8 8 8 9 11 15 17 19 19 18 18 18 18 19 20 20 20 20 19
10 13 13 14 14 15 14 13 13 14 15 14 14 12 11 11 6 6 9 8 7 5 5 5 8 8 8 8 9 16 16 18 19 18 17 17 18 18 19 20 20 19 19
10 10 12 13 14 14 14 13 13 14 13 15 16 15 12 11 10 9 8 7 8 7 6 8 4 7 8 8 11 15 11 16 18 18 18 17 17 17 17 19 19 18 18
8 10 11 13 14 14 14 14 13 14 14 15 15 15 14 11 10 10 9 9 10 11 11 7 6 7 7 7 10 9 9 13 16 17 17 17 16 17 17 18 18 18 18
10 10 11 12 13 14 14 14 13 13 15 15 12 14 15 12 11 10 10 10 11 13 14 6 6 6 7 7 9 9 9 13 14 15 15 15 15 15 15 16 16 17 17
10 11 11 12 12 13 13 14 15 14 16 16 14 16 17 14 12 11 10 11 11 11 15 10 5 5 8 8 7 7 7 7 7 12 14 14 14 14 14 14 14 15 15
9 10 10 11 12 12 12 14 15 15 16 17 16 16 17 13 16 13 11 13 12 12 13 15 7 6 9 8 7 7 6 5 6 9 12 13 13 13 13 13 13 13 13
9 9 9 11 11 12 12 13 14 15 15 16 16 17 17 15 16 13 13 13 11 10 11 12 10 6 6 4 5 4 4 5 5 6 9 11 12 12 12 12 12 11 11
8 9 10 11 11 11 12 12 13 14 15 15 15 16 16 16 16 15 13 14 12 11 11 11 10 7 5 4 4 5 5 5 5 4 7 7 9 10 11 11 11 10 10
8 9 9 10 10 10 10 11 12 14 15 15 15 15 16 17 18 15 12 12 12 12 10 10 10 7 6 5 6 5 7 5 4 4 4 4 4 5 6 8 10 10 11
8 8 9 10 11 9 12 14 13 12 13 14 15 14 14 15 17 19 19 18 16 15 13 11 10 10 9 8 7 6 6 5 5 4 5 4 4 5 4 4 9 11 12
8 8 9 9 11 12 13 14 15 13 12 13 14 13 11 10 13 13 15 17 17 18 18 14 13 13 10 9 9 8 8 7 7 5 5 4 4 5 4 5 10 11 11
7 8 9 9 10 11 12 13 13 13 13 13 12 12 12 12 11 12 11 12 13 14 15 14 13 12 9 8 10 10 9 6 3 2 4 4 3 3 2 3 9 10 10
8 7 8 9 10 11 11 11 10 9 10 11 10 10 11 11 13 13 12 12 11 10 9 12 13 11 10 10 9 6 6 5 4 4 4 4 3 2 1 2 4 8 9
8 8 8 8 9 10 10 10 10 7 8 8 8 8 9 11 12 12 12 11 12 10 6 5 6 7 7 8 11 9 8 6 4 4 5 5 4 3 2 1 1 1 3
Wind_Direction
185 185 188 187 188 184 187 193 203 212 219 226 225 220 219 211 205 206 219 220 218 221 227 228 224 219 216 215 211 208 209 208 204 203 205 203 199 194 191 189 184 176 170
188 188 192 194 197 196 196 199 205 210 218 220 225 221 219 215 214 212 215 224 226 227 232 235 235 231 227 223 222 218 216 217 214 213 213 213 211 208 206 205 202 198 192
193 192 195 200 203 200 199 203 211 212 218 222 229 228 224 221 221 220 217 218 226 231 234 238 240 239 238 233 228 224 223 222 221 220 219 218 217 217 216 215 213 210 207
197 195 200 205 202 199 200 203 205 209 219 221 225 230 227 227 228 226 222 221 220 226 233 237 240 242 241 240 235 232 230 229 226 225 223 222 221 222 222 220 220 219 218
201 201 206 206 198 201 206 208 207 203 213 222 227 232 233 232 233 231 229 226 223 223 224 234 236 238 241 242 240 238 236 235 232 230 228 227 224 223 224 225 224 223 223
206 206 210 207 200 204 210 209 210 209 212 213 228 240 239 237 235 234 234 231 227 225 222 224 229 235 237 240 241 242 241 240 238 235 233 231 228 226 226 226 226 225 225
207 209 214 209 207 213 215 210 207 213 219 190 210 262 267 245 241 238 233 232 231 227 222 222 222 222 232 236 239 241 244 244 243 240 237 235 232 230 229 229 228 227 226
210 212 215 215 212 217 217 214 209 213 215 186 186 204 277 284 248 236 229 230 233 226 226 225 222 221 221 223 234 239 243 246 247 245 242 239 237 235 234 233 231 230 229
214 216 217 217 216 217 222 219 214 215 221 210 197 186 208 239 279 267 235 231 229 225 229 226 225 225 223 222 229 238 241 244 247 248 247 244 243 240 239 237 236 235 234
216 218 219 219 220 220 224 222 217 219 218 222 216 220 219 189 209 285 280 243 233 231 230 228 228 228 224 224 227 229 233 238 242 246 247 247 246 244 244 243 242 242 241
217 219 220 221 223 224 225 223 218 218 219 224 218 210 226 233 228 238 270 275 258 238 232 229 229 229 227 225 227 230 231 234 237 240 242 243 245 246 248 249 249 248 247
221 221 221 222 224 226 226 225 223 222 224 226 225 217 208 213 218 223 243 252 255 249 232 228 228 229 227 225 229 230 230 232 235 235 236 238 241 244 248 250 251 252 251
224 223 220 224 226 228 228 226 225 227 226 226 228 230 229 230 219 216 234 247 250 250 239 233 226 226 226 224 230 229 231 232 233 233 234 235 238 241 245 248 250 252 253
229 226 221 225 227 227 228 226 228 229 228 229 231 231 235 235 230 226 229 237 256 256 238 239 228 222 224 223 230 226 231 230 231 233 233 234 236 239 242 246 248 249 251
231 227 225 226 227 227 227 227 230 230 229 231 233 232 235 236 233 233 230 226 242 261 261 230 223 219 219 220 226 224 226 227 227 230 231 232 234 237 239 242 243 245 248
232 231 228 228 229 228 227 227 231 232 232 232 232 234 235 236 234 231 231 231 231 245 261 242 220 211 207 217 222 221 224 225 226 229 230 230 232 236 237 239 242 244 246
238 235 233 232 231 230 228 229 232 231 232 235 233 234 237 234 235 233 230 231 233 235 253 257 222 211 208 216 219 218 221 221 225 225 227 228 229 232 234 235 238 243 245
247 242 240 237 236 235 232 232 235 234 235 236 236 235 238 234 235 234 232 233 234 231 242 255 243 215 218 215 213 213 217 216 221 224 224 225 225 228 230 232 235 239 239
256 251 244 241 240 238 236 235 237 238 238 239 238 236 238 235 236 234 233 234 234 232 234 246 249 226 218 203 206 214 213 217 220 223 223 225 224 226 227 229 231 232 231
264 258 251 246 243 242 240 238 238 241 242 242 240 239 237 234 236 235 234 234 233 232 233 238 243 232 217 190 186 206 223 220 225 213 223 224 224 222 225 228 228 226 223
271 265 261 256 250 245 241 239 240 242 244 245 244 241 239 236 235 233 233 233 230 234 232 234 238 232 215 188 204 198 216 215 220 200 207 217 214 219 219 224 223 218 217
280 273 265 261 257 252 250 242 240 246 247 247 248 246 242 236 236 232 231 229 226 230 233 231 234 232 226 212 204 196 200 197 228 198 192 219 194 216 217 214 215 213 212
290 283 275 269 264 261 257 249 241 245 249 249 248 248 247 242 234 236 234 232 233 232 229 230 235 233 226 210 196 200 201 203 215 183 171 211 195 217 214 219 212 208 209
295 289 286 281 278 277 271 261 252 247 252 252 249 246 246 244 235 229 233 235 236 236 231 232 238 239 228 210 200 201 198 197 179 163 165 201 192 210 209 213 212 207 208
303 299 297 292 287 287 283 275 267 261 260 260 257 252 248 248 241 225 227 234 238 241 235 227 230 234 225 208 188 175 174 174 199 196 180 181 176 180 204 226 214 205 204
297 300 297 293 288 288 290 282 269 265 268 270 269 261 251 247 245 228 229 232 237 238 222 222 226 231 227 212 197 197 187 186 183 196 183 172 166 157 193 229 201 181 191